Regional Weather Roundup
Issued by NWS

Home | Current Version | Previous Version | Graphics & Text | Print | Product List | Glossary On
Versions: 1 2 3 4 5 6 7 8 9 10 11 12 13 14 15 16 17 18 19 20 21 22 23 24 25 26 27 28 29 30 31 32 33 34 35 36 37 38 39 40 41 42 43 44 45 46 47 48 49 50
000
ASUS43 KLOT 241009
RWRIL

ILLINOIS REGIONAL WEATHER ROUNDUP
NATIONAL WEATHER SERVICE CHICAGO/ROMEOVILLE IL
500 AM CDT THU MAY 24 2018

NOTE: "FAIR" INDICATES FEW OR NO CLOUDS BELOW 12,000 FEET WITH NO
SIGNIFICANT WEATHER AND/OR OBSTRUCTIONS TO VISIBILITY.

* THESE STATIONS ARE NOT UNDER NWS QUALITY CONTROL. THEY ALSO MAY NOT
  REPORT WEATHER SUCH AS PRECIPITATION OR FOG.

ILZ001-002-007-009-015-016-024-241100-
NORTHWEST ILLINOIS

CITY           SKY/WX    TMP DP  RH WIND       PRES   REMARKS
MOLINE         FAIR      59  56  89 E5        30.14R
STERLING*      FAIR      59  56  89 E3        30.17R
SAVANNA*       FAIR      62  56  81 CALM      30.16R
$$

ILZ003-004-008-010-011-017-018-241100-
NORTH CENTRAL ILLINOIS

CITY           SKY/WX    TMP DP  RH WIND       PRES   REMARKS
ROCKFORD       FAIR      59  51  75 CALM      30.18R
FREEPORT*      FAIR      57  53  86 CALM      30.19R
ROCHELLE*      FAIR      57  53  87 SE3       30.18R
DE KALB*       FAIR      58  52  78 SE3       30.19R
PERU*          FAIR      60  56  84 E5        30.17S
$$

ILZ005-006-012>014-019>023-241100-
NORTHEAST ILLINOIS

CITY           SKY/WX    TMP DP  RH WIND       PRES   REMARKS
CHICAGO-OHARE  FAIR      58  52  80 CALM      30.17R
CHICAGO-MIDWAY FAIR      59  53  80 CALM      30.17S
AURORA         FAIR      56  53  90 CALM      30.17R
LANSING*       FAIR      54  54 100 CALM      30.19R
JOLIET*        FAIR      55  55  98 CALM      30.18R
WAUKEGAN       FAIR      50  50 100 CALM      30.18R
DUPAGE AIRPORT FAIR      54  52  93 CALM      30.17R
KANKAKEE*      FAIR      58  55  90 SE3       30.18R
WHEELING       FAIR      56  53  90 CALM      30.20R
MORRIS*        FAIR      58  53  82 NE3       30.17R
ROMEOVILLE*    FAIR      56  54  90 E3        30.18R
NORTHERLY ISL    N/A     56  51  84 CALM        N/A
$$

LMZ740>746-241100-
SOUTHERN LAKE MICHIGAN

STATION/POSITION SKY/WX   TEMP    WIND        PRES    VSBY  WAVE
                          AIR SEA DIR/SP/G                  HT/PER
                          (F)     (DEG/KT/KT) (MB)    (MI)  (FT/S)
SOUTHERN BUOY              50 39  140/  6/  6 1022.6R         0
WILMETTE HARBOR            55 52   CALM  /  2   N/A           0
HARRISON CRIB              59     170/  2/  2   N/A
BURNHAM HARBOR             56      CALM  /  2   N/A
CALUMET HARBOR             55      CALM  /  1 1021.6R
BURNS HARBOR               65      CALM  /  7 1022.4R
MICHIGAN CITY              61     120/  9/  9   N/A
MICHIGAN CITY 6N           58 56  130/  4/  6   N/A           0
ST. JOSEPH                 58 55  160/  4/  6 1022.5          0
$$

ILZ025>027-034>036-040-047-049-050-058-095>099-241100-
WEST-CENTRAL ILLINOIS

CITY           SKY/WX    TMP DP  RH WIND       PRES   REMARKS
QUINCY         PTCLDY    67  60  78 E5        30.13R
GALESBURG*     FAIR      64  55  72 SE3       30.16R
MACOMB*        CLEAR     61  58  91 CALM      30.16R
JACKSONVILLE*  CLEAR     61  58  90 E5        30.14R
PITTSFIELD*    CLEAR     64  64  99 CALM      30.15R FOG
$$

ILZ028>032-037-038-041>044-048-051>054-059>061-241100-
CENTRAL ILLINOIS

CITY           SKY/WX    TMP DP  RH WIND       PRES   REMARKS
PONTIAC        FAIR      59  58  96 E6        30.18R
BLOOMINGTON    FAIR      66  52  60 SE9       30.17R
DECATUR        FAIR      59  52  77 E3        30.16R
PEORIA         FAIR      67  52  58 CALM      30.15R
LACON*         FAIR      58  56  92 CALM      30.16R
LINCOLN*       FAIR      64  54  68 CALM      30.15S
SPRINGFIELD    FAIR      62  57  83 E3        30.14R
TAYLORVILLE    FAIR      64  58  81 SE5       30.15R
$$

ILZ033-039-045-046-055>057-062-063-241100-
EAST-CENTRAL ILLINOIS

CITY           SKY/WX    TMP DP  RH WIND       PRES   REMARKS
CHAMPAIGN      FAIR      60  54  80 E7        30.17R
DANVILLE*      FAIR      61  53  74 E5        30.15R
RANTOUL*       FAIR      64  55  72 CALM      30.17R
MATTOON        FAIR      63  57  81 SE7       30.15R
PARIS*         FAIR      58  55  88 E3        30.17S
$$

ILZ079-100>102-241100-
SOUTHWEST ILLINOIS

CITY           SKY/WX    TMP DP  RH WIND       PRES   REMARKS
ALTON          PTCLDY    61  60  94 CALM      30.13R
BELLEVILLE     CLEAR     64  62  93 CALM      30.11R
CAHOKIA*       CLEAR     64  62  93 CALM      30.12R
SPARTA*        CLEAR     64  64 100 CALM      30.13S
$$

ILZ064>066-069>071-074>076-080>082-084>086-088>090-092>094-241100-
SOUTH-CENTRAL ILLINOIS

CITY           SKY/WX    TMP DP  RH WIND       PRES   REMARKS
CARBONDALE     FAIR      62  61  96 CALM      30.12R FOG
CAIRO*         FAIR      66  66  99 CALM      30.10R
EFFINGHAM*     FAIR      61  59  95 CALM      30.17R
MARION         FOG       61  60  97 CALM      30.13R VSB 1
MT. VERNON     FAIR      60  59  96 N3        30.14R
CENTRALIA*     CLEAR     62  61  95 E3        30.13R
SALEM*         FAIR      68  59  74 E3        30.14R
METROPOLIS*    FAIR      65  64  97 CALM      30.11R
$$

ILZ067-068-072-073-078-083-087-091-241100-
SOUTHEAST ILLINOIS

CITY           SKY/WX    TMP DP  RH WIND       PRES   REMARKS
LAWRENCEVILLE  FAIR      64  58  80 NE3       30.15R
FLORA*         FAIR      64  59  82 CALM      30.15R
FAIRFIELD*     FAIR      65  59  82 CALM      30.13R
HARRISBURG*    FAIR      65  62  89 CALM      30.12S
ROBINSON*      FAIR      57  57 100 CALM      30.16R
CARMI*         FAIR      63  60  88 CALM      30.13R
$$

ABBREVIATIONS USED IN REMARKS
   TC - TEMPERATURE IN CELSIUS
  WCI - WIND CHILL INDEX
   HX - HEAT INDEX
  VSB - VISIBILITY
$$





USA.gov is the U.S. government's official web portal to all federal, state and local government web resources and services.